Location: Cahas Mountain Overlook
(37.0833°N, 80.1000°W)
Time: 10:18:02
(UTC-04:00)

A-11 Canister half - Pass Details

Date: 12 February 2026
Orbit: 1524 x 1683 km, 47.3° (Epoch: 16 March)

Event Time Altitude Azimuth Distance (km) Brightness Sun altitude
Rises 20:08:49 0° 272° (W) 4,681 12.9 -26.7°
Reaches altitude 10° 20:12:03 10° 278° (W) 3,692 12.0 -27.4°
Maximum altitude 20:20:55 47° 350° (N) 1,934 9.5 -29.1°
Enters shadow 20:24:17 35° 37° (NE) 2,279 9.6 -29.8°
